IRIDIUM 25

Last updated on Wed Nov 29 2017 00:19:02 GMT+0000 (Greenwich Mean Time)

1 24904U 97043B 17332.51550697 .00000105 00000-0 30414-4 0 9998 2 24904 86.3976 186.7564 0002002 91.3041 268.8384 14.34220183 61384
UTC large
Height (km)
Speed (km/s)
/
Latitude / Longitude
Inclination (degrees)
Orbital Period (minutes)
Azimuth
Elevation
Range (km)
Doppler Factor

Next 0 passes for location: London (51.5072 / 0.1276)

Sorry there are no passes over London.